Weather observations for the past three days for
Fort Rucker, Lowe Army Heliport
Metric (Imperial)
Date Time (cdt) Wind (kph) Vis. (km) Weather Sky Cond. Temperature (ºC) Relative Humidity Wind Chill (°C) Heat Index (°C) Pressure Precipitation (cm)
Air Dwpt 6 hour altimeter (cm) sea level (mb) 1 hr 3 hr 6 hr
Max. Min.
21 08:55 E 7 16.09 Fair CLR 24.7 18.8 70% 26 76.25 1014.8
21 07:55 Calm 16.09 Fair CLR 21.7 19.2 86% 76.2 1014.1
21 06:55 Calm 16.09 Fair CLR 17.7 17.2 18.2 14.5 97% 76.12 1013.1
21 05:55 Calm 14.48 Fair CLR 16 15.7 98% 76.1 1012.7
21 04:55 Calm 9.66 Fog/Mist CLR 15.1 14.8 98% 76.07 1012.4
21 03:55 Calm 9.66 Fog/Mist CLR 16.1 15.8 98% 76.07 1012.4
21 02:55 Calm 11.27 Fair CLR 16.1 15.8 98% 76.02 1011.7
21 01:55 Calm 16.09 Fair CLR 16.6 16.3 98% 76.05 1012.1
21 00:55 Calm 16.09 Fair CLR 17.7 17.4 26.1 17.6 98% 76.1 1012.7
20 23:55 Calm 16.09 Fair CLR 18.6 18.1 97% 76.1 1012.7
20 22:55 Calm 16.09 Fair CLR 19 18.3 96% 76.12 1013.1
20 21:55 Calm 16.09 Fair CLR 19.7 18.7 94% 76.1 1012.7
20 20:55 Calm 16.09 Fair CLR 21 19.1 89% 76.1 1012.7
20 19:55 Calm 16.09 Fair CLR 22.3 19.2 83% 76.05 1012.1
20 18:55 Calm 16.09 Fair CLR 26 18.4 28.2 24.9 63% 27 76.02 1011.7
20 17:55 NE 9 16.09 A Few Clouds FEW042 27.5 18.5 58% 29 76.02 1011.7
20 16:55 E 7 16.09 Mostly Cloudy BKN040 27.8 17.9 55% 29 76.02 1011.7
20 15:55 NE 9 16.09 A Few Clouds FEW037 27.5 17.9 56% 28 76.05 1012.0
20 14:55 NE 13 16.09 Mostly Cloudy BKN035 27.3 18.6 59% 28 76.07 1012.4
20 13:55 E 7 16.09 Partly Cloudy SCT030 26.1 17.7 60% 27 76.12 1013.0
20 12:55 E 7 16.09 Mostly Cloudy BKN027 25.1 18 25.9 20.2 65% 26 76.17 1013.7
20 11:55 NE 13 14.48 Overcast OVC029 25.5 18.4 65% 27 76.2 1014.1
20 09:55 NE 11 16.09 Mostly Cloudy BKN023 24.1 18 69% 25 76.17 1013.7
20 08:55 NE 7 16.09 Partly Cloudy SCT018 23.7 18.5 73% 76.15 1013.4
20 07:55 NE 9 16.09 Fair CLR 21.9 19.2 85% 76.1 1012.7
20 05:55 Calm 14.48 Fair CLR 19.2 18.7 97% 76.05 0.0
19 17:55 NW 9 16.09 Partly Cloudy SCT044 28.7 19.3 57% 30 75.9 1010.0
19 14:55 NW 13 16.09 Partly Cloudy FEW040 SCT050 29.3 19 54% 31 75.95 1010.7
19 13:55 N 13 16.09 Mostly Cloudy BKN041 BKN050 28.7 19.6 58% 30 76 1011.3
19 09:55 W 15 16.09 Mostly Cloudy BKN019 24.5 19.5 74% 25 76.1 1012.7
18 17:55 SW 9 16.09 A Few Clouds FEW032 26.3 20.1 69% 28 75.82 1009.0
18 16:55 SW 11 16.09 Partly Cloudy FEW031 SCT240 26.4 20.5 70% 28 75.82 1009.0
18 14:55 SW 20 16.09 A Few Clouds FEW240 27.6 20.1 64% 29 75.82 1009.0
18 13:55 SW 13 16.09 A Few Clouds FEW260 FEW280 25.4 20 72% 26 75.9 1010.0
18 12:55 S 13 16.09 Partly Cloudy SCT200 22.9 20.2 22.9 20.7 85% 75.95 1010.7 2.24
Date Time (cdt) Wind (kph) Vis. (km) Weather Sky Cond. Air Dwpt Max. Min. Relative Humidity Wind Chill (°C) Heat Index (°C) altimeter (cm) sea level (mb) 1 hr 3 hr 6 hr
6 hour
Temperature (ºC) Pressure Precipitation (cm)